Weather reports worldwide

Advertisment
Falsterbo, Sweden (2616): temperature & dewpoint: 09.12.2019 00:00:00 - 15.12.2019 00:00:00 (CET)Falsterbo, Sweden (2616): wind speed: 09.12.2019 00:00:00 - 15.12.2019 00:00:00 (CET)Falsterbo, Sweden (2616): wind direction: 09.12.2019 00:00:00 - 15.12.2019 00:00:00 (CET)Falsterbo, Sweden (2616): reduced air pressure: 09.12.2019 00:00:00 - 15.12.2019 00:00:00 (CET)Falsterbo, Sweden (2616): visibility: 09.12.2019 00:00:00 - 15.12.2019 00:00:00 (CET)Falsterbo, Sweden (2616): precipitation: 09.12.2019 00:00:00 - 15.12.2019 00:00:00 (CET)
Date & Time tt [°C] td [°C] ff [km/h] ff [kn] dd ppp [hPa] vv [km] rr [mm]
15.12.2019 00:00:00 - - - - - - - -
14.12.2019 23:00:00 - - - - - - - -
14.12.2019 22:00:00 - - - - - - - -
14.12.2019 21:00:00 - - - - - - - -
14.12.2019 20:00:00 - - - - - - - -
14.12.2019 19:00:00 5,8 4,0 36 19 SW 984,4 35 -
14.12.2019 18:00:00 - - - - - - - -
14.12.2019 17:00:00 - - - - - - - -
14.12.2019 16:00:00 5,4 4,2 36 19 SW 983,4 5 -
14.12.2019 15:00:00 - - - - - - - -
14.12.2019 14:00:00 - - - - - - - -
14.12.2019 13:00:00 5,6 4,4 32 18 SW 982,0 10 -
14.12.2019 12:00:00 - - - - - - - -
14.12.2019 11:00:00 - - - - - - - -
14.12.2019 10:00:00 3,2 2,6 25 14 S 981,9 9 -
14.12.2019 09:00:00 - - - - - - - -
14.12.2019 08:00:00 - - - - - - - -
14.12.2019 07:00:00 3,4 2,4 29 16 S 981,5 7 -
14.12.2019 06:00:00 - - - - - - - -
14.12.2019 05:00:00 - - - - - - - -
14.12.2019 04:00:00 - - - - - - - -
14.12.2019 03:00:00 - - - - - - - -
14.12.2019 02:00:00 - - - - - - - -
14.12.2019 01:00:00 - - - - - - - -
14.12.2019 00:00:00 - - - - - - - -
13.12.2019 23:00:00 - - - - - - - -
13.12.2019 22:00:00 - - - - - - - -
13.12.2019 21:00:00 - - - - - - - -
13.12.2019 20:00:00 - - - - - - - -
13.12.2019 19:00:00 4,8 2,2 29 16 SE 984,6 15 0,0
13.12.2019 18:00:00 - - - - - - - -
13.12.2019 17:00:00 - - - - - - - -
13.12.2019 16:00:00 4,9 2,9 29 16 ESE 984,8 24 -
13.12.2019 15:00:00 - - - - - - - -
13.12.2019 14:00:00 - - - - - - - -
13.12.2019 13:00:00 5,1 2,6 36 19 ESE 985,9 28 0,0
13.12.2019 12:00:00 - - - - - - - -
13.12.2019 11:00:00 - - - - - - - -
13.12.2019 10:00:00 4,7 2,7 36 19 SE 987,8 20 -
13.12.2019 09:00:00 - - - - - - - -
13.12.2019 08:00:00 - - - - - - - -
13.12.2019 07:00:00 4,9 2,9 36 19 SSE 988,9 30 -
13.12.2019 06:00:00 - - - - - - - -
13.12.2019 05:00:00 - - - - - - - -
13.12.2019 04:00:00 - - - - - - - -
13.12.2019 03:00:00 - - - - - - - -
13.12.2019 02:00:00 - - - - - - - -
13.12.2019 01:00:00 - - - - - - - -
13.12.2019 00:00:00 - - - - - - - -
12.12.2019 23:00:00 - - - - - - - -
12.12.2019 22:00:00 - - - - - - - -
12.12.2019 21:00:00 - - - - - - - -
12.12.2019 20:00:00 - - - - - - - -
12.12.2019 19:00:00 5,7 4,0 29 16 SW 996,6 10 -
12.12.2019 18:00:00 - - - - - - - -
12.12.2019 17:00:00 - - - - - - - -
12.12.2019 16:00:00 5,4 3,6 29 16 SW 997,5 10 -
12.12.2019 15:00:00 - - - - - - - -
12.12.2019 14:00:00 - - - - - - - -
12.12.2019 13:00:00 5,4 3,6 25 14 SW 998,0 12 -
12.12.2019 12:00:00 - - - - - - - -
12.12.2019 11:00:00 - - - - - - - -
12.12.2019 10:00:00 5,2 4,5 18 10 WSW 999,1 21 -
12.12.2019 09:00:00 - - - - - - - -
12.12.2019 08:00:00 - - - - - - - -
12.12.2019 07:00:00 3,9 3,6 18 10 S 999,6 20 -
12.12.2019 06:00:00 - - - - - - - -
12.12.2019 05:00:00 - - - - - - - -
12.12.2019 04:00:00 - - - - - - - -
12.12.2019 03:00:00 - - - - - - - -
12.12.2019 02:00:00 - - - - - - - -
12.12.2019 01:00:00 - - - - - - - -
12.12.2019 00:00:00 - - - - - - - -
11.12.2019 23:00:00 - - - - - - - -
11.12.2019 22:00:00 - - - - - - - -
11.12.2019 21:00:00 - - - - - - - -
11.12.2019 20:00:00 - - - - - - - -
11.12.2019 19:00:00 5,4 5,0 25 14 SSW 1004,8 15 -
11.12.2019 18:00:00 - - - - - - - -
11.12.2019 17:00:00 - - - - - - - -
11.12.2019 16:00:00 5,5 5,1 22 12 SW 1005,7 7 -
11.12.2019 15:00:00 - - - - - - - -
11.12.2019 14:00:00 - - - - - - - -
11.12.2019 13:00:00 5,5 4,9 29 16 SW 1006,6 6 -
11.12.2019 12:00:00 - - - - - - - -
11.12.2019 11:00:00 - - - - - - - -
11.12.2019 10:00:00 5,1 4,5 36 19 SW 1007,2 7 -
11.12.2019 09:00:00 - - - - - - - -
11.12.2019 08:00:00 - - - - - - - -
11.12.2019 07:00:00 5,1 3,6 50 27 SSW 1007,1 22 -
11.12.2019 06:00:00 - - - - - - - -
11.12.2019 05:00:00 - - - - - - - -
11.12.2019 04:00:00 - - - - - - - -
11.12.2019 03:00:00 - - - - - - - -
11.12.2019 02:00:00 - - - - - - - -
11.12.2019 01:00:00 - - - - - - - -
11.12.2019 00:00:00 - - - - - - - -
10.12.2019 23:00:00 - - - - - - - -
10.12.2019 22:00:00 - - - - - - - -
10.12.2019 21:00:00 - - - - - - - -
10.12.2019 20:00:00 - - - - - - - -
10.12.2019 19:00:00 5,5 2,8 36 19 SSW 1017,1 35 -
10.12.2019 18:00:00 - - - - - - - -
10.12.2019 17:00:00 - - - - - - - -
10.12.2019 16:00:00 4,5 2,4 22 12 SSW 1019,2 23 -
10.12.2019 15:00:00 - - - - - - - -
10.12.2019 14:00:00 - - - - - - - -
10.12.2019 13:00:00 4,9 0,3 18 10 SW 1019,8 40 -
10.12.2019 12:00:00 - - - - - - - -
10.12.2019 11:00:00 - - - - - - - -
10.12.2019 10:00:00 4,0 -1,2 14 8 NNW 1019,0 40 -
10.12.2019 09:00:00 - - - - - - - -
10.12.2019 08:00:00 - - - - - - - -
10.12.2019 07:00:00 4,1 -1,3 36 19 NNW 1015,7 45 -
10.12.2019 06:00:00 - - - - - - - -
10.12.2019 05:00:00 - - - - - - - -
10.12.2019 04:00:00 - - - - - - - -
10.12.2019 03:00:00 - - - - - - - -
10.12.2019 02:00:00 - - - - - - - -
10.12.2019 01:00:00 - - - - - - - -
10.12.2019 00:00:00 - - - - - - - -
09.12.2019 23:00:00 - - - - - - - -
09.12.2019 22:00:00 - - - - - - - -
09.12.2019 21:00:00 - - - - - - - -
09.12.2019 20:00:00 - - - - - - - -
09.12.2019 19:00:00 6,6 3,4 43 23 WSW 995,5 25 -
09.12.2019 18:00:00 - - - - - - - -
09.12.2019 17:00:00 - - - - - - - -
09.12.2019 16:00:00 6,9 5,2 40 21 WSW 993,2 22 -
09.12.2019 15:00:00 - - - - - - - -
09.12.2019 14:00:00 - - - - - - - -
09.12.2019 13:00:00 7,5 4,8 47 25 SW 991,5 26 -
09.12.2019 12:00:00 - - - - - - - -
09.12.2019 11:00:00 - - - - - - - -
09.12.2019 10:00:00 7,1 4,6 43 23 SW 991,5 22 -
09.12.2019 09:00:00 - - - - - - - -
09.12.2019 08:00:00 - - - - - - - -
09.12.2019 07:00:00 7,0 4,5 43 23 SW 990,0 30 -
09.12.2019 06:00:00 - - - - - - - -
09.12.2019 05:00:00 - - - - - - - -
09.12.2019 04:00:00 - - - - - - - -
09.12.2019 03:00:00 - - - - - - - -
09.12.2019 02:00:00 - - - - - - - -
09.12.2019 01:00:00 - - - - - - - -
09.12.2019 00:00:00 - - - - - - - -

tt = temperature
td = dewpoint
ff = wind speed
dd = wind direction
ppp = reduced air pressure
vv = visibility
rr = precipitation

Next stations